{"data":{"norad_id":64077,"epoch":"2026-09-20T04:35:19.959936Z","epoch_age_seconds":170220,"freshness":"FRESH","line1":"1 64077U 25107P   26263.19120324  .00009052  00000+0  33827-3 0  9991","line2":"2 64077  43.0004 183.3902 0002354 248.0365 112.0236 15.27560949 74773","mean_motion":15.27560949,"eccentricity":0.0002354,"inclination_deg":43.0004,"raan_deg":183.3902,"arg_perigee_deg":248.0365,"mean_anomaly_deg":112.0236,"bstar":0.00033827,"rev_number":7477,"period_min":94.267924362866,"perigee_km":481.49100554442,"apogee_km":484.72127881575,"semimajor_km":6861.2431421801,"source":"CELESTRAK","updated_at":"2026-09-21T09:00:35.194447Z"}}